When you browse on this site, cookies collect data to enhance your experience and personalize the content and advertising you see.
Visit our Privacy Policy to learn more. By continuing to use the site, you agree to this use of cookies and data.

Hourly Weather Zhdanovo

Today, 9 July, Thursday

Time Temperature Precipitation Wind Pressure Humidity
00:00 +13°C° 0.6 mm 5 mps 735 mmHg 95%
01:00 +13°C° 0.6 mm 5 mps 736 mmHg 96%
02:00 +12°C° 0.6 mm 4 mps 736 mmHg 96%
03:00 +12°C° 0.4 mm 4 mps 736 mmHg 95%
04:00 +12°C° 0.4 mm 5 mps 736 mmHg 95%
05:00 +12°C° 0.4 mm 5 mps 737 mmHg 94%
06:00 +13°C° 0 mm 5 mps 737 mmHg 90%
07:00 +14°C° 0 mm 5 mps 738 mmHg 85%
08:00 +15°C° 0 mm 5 mps 738 mmHg 81%
09:00 +18°C° 0 mm 4 mps 738 mmHg 76%
10:00 +19°C° 0 mm 4 mps 739 mmHg 72%
11:00 +20°C° 0 mm 4 mps 739 mmHg 68%
12:00 +20°C° 0.1 mm 3 mps 739 mmHg 66%
13:00 +21°C° 0.1 mm 3 mps 739 mmHg 64%
14:00 +21°C° 0.1 mm 3 mps 739 mmHg 62%
15:00 +20°C° 0.3 mm 3 mps 739 mmHg 67%
16:00 +19°C° 0.3 mm 4 mps 739 mmHg 72%
17:00 +19°C° 0.3 mm 4 mps 739 mmHg 77%
18:00 +17°C° 0 mm 3 mps 740 mmHg 80%
19:00 +16°C° 0 mm 3 mps 740 mmHg 84%
20:00 +14°C° 0 mm 2 mps 740 mmHg 88%
21:00 +14°C° 0 mm 2 mps 741 mmHg 90%
22:00 +12°C° 0 mm 3 mps 741 mmHg 92%
23:00 +11°C° 0 mm 3 mps 741 mmHg 94%

Tomorrow, 10 July, Friday

Time Temperature Precipitation Wind Pressure Humidity
00:00 +11°C° 0 mm 3 mps 742 mmHg 94%
01:00 +10°C° 0 mm 3 mps 742 mmHg 94%
02:00 +10°C° 0 mm 3 mps 742 mmHg 94%
03:00 +10°C° 0 mm 2 mps 742 mmHg 92%
04:00 +10°C° 0 mm 2 mps 743 mmHg 91%
05:00 +10°C° 0 mm 2 mps 743 mmHg 89%
06:00 +13°C° 0 mm 2 mps 743 mmHg 84%
07:00 +15°C° 0 mm 2 mps 744 mmHg 78%
08:00 +16°C° 0 mm 2 mps 744 mmHg 72%
09:00 +17°C° 0 mm 2 mps 744 mmHg 67%
10:00 +19°C° 0 mm 2 mps 744 mmHg 63%
11:00 +20°C° 0 mm 2 mps 744 mmHg 58%
12:00 +20°C° 0 mm 2 mps 744 mmHg 57%
13:00 +21°C° 0 mm 2 mps 744 mmHg 56%
14:00 +21°C° 0 mm 2 mps 744 mmHg 56%
15:00 +21°C° 0 mm 2 mps 744 mmHg 60%
16:00 +21°C° 0 mm 3 mps 744 mmHg 64%
17:00 +21°C° 0 mm 3 mps 744 mmHg 69%
18:00 +19°C° 0 mm 3 mps 744 mmHg 74%
19:00 +18°C° 0 mm 3 mps 744 mmHg 80%
20:00 +16°C° 0 mm 3 mps 744 mmHg 85%
21:00 +16°C° 0 mm 3 mps 744 mmHg 86%
22:00 +14°C° 0 mm 3 mps 745 mmHg 87%
23:00 +13°C° 0 mm 3 mps 745 mmHg 88%

Day after tomorrow, 11 July, Saturday

Time Temperature Precipitation Wind Pressure Humidity
00:00 +13°C° 0 mm 3 mps 745 mmHg 89%
01:00 +13°C° 0 mm 3 mps 745 mmHg 90%
02:00 +13°C° 0 mm 3 mps 745 mmHg 91%
03:00 +13°C° 0 mm 3 mps 745 mmHg 89%
04:00 +13°C° 0 mm 3 mps 745 mmHg 87%
05:00 +14°C° 0 mm 3 mps 745 mmHg 86%
06:00 +16°C° 0 mm 3 mps 745 mmHg 82%
07:00 +18°C° 0 mm 4 mps 745 mmHg 78%
08:00 +20°C° 0 mm 4 mps 745 mmHg 75%
09:00 +21°C° 0 mm 4 mps 745 mmHg 72%
10:00 +22°C° 0 mm 4 mps 745 mmHg 70%
11:00 +23°C° 0 mm 4 mps 745 mmHg 67%
12:00 +25°C° 0 mm 4 mps 745 mmHg 67%
13:00 +25°C° 0 mm 4 mps 745 mmHg 67%
14:00 +26°C° 0 mm 4 mps 745 mmHg 67%
15:00 +25°C° 0 mm 4 mps 744 mmHg 69%
16:00 +25°C° 0 mm 4 mps 744 mmHg 72%
17:00 +25°C° 0 mm 3 mps 744 mmHg 74%
18:00 +22°C° 0 mm 3 mps 744 mmHg 78%
19:00 +21°C° 0 mm 3 mps 744 mmHg 82%
20:00 +19°C° 0 mm 2 mps 744 mmHg 86%
21:00 +18°C° 0 mm 2 mps 744 mmHg 87%
22:00 +18°C° 0 mm 2 mps 744 mmHg 87%
23:00 +17°C° 0 mm 2 mps 744 mmHg 88%

12 July, Sunday

Time Temperature Precipitation Wind Pressure Humidity
00:00 +17°C° 0 mm 2 mps 744 mmHg 88%
01:00 +16°C° 0 mm 2 mps 744 mmHg 89%
02:00 +16°C° 0 mm 2 mps 743 mmHg 89%
03:00 +16°C° 0 mm 2 mps 743 mmHg 88%
04:00 +16°C° 0 mm 2 mps 743 mmHg 88%
05:00 +18°C° 0 mm 1 mps 743 mmHg 87%
06:00 +18°C° 0 mm 2 mps 743 mmHg 82%
07:00 +20°C° 0 mm 2 mps 743 mmHg 77%
08:00 +23°C° 0 mm 2 mps 743 mmHg 72%
09:00 +24°C° 0 mm 2 mps 743 mmHg 69%
10:00 +25°C° 0 mm 2 mps 742 mmHg 65%
11:00 +26°C° 0 mm 2 mps 742 mmHg 62%
12:00 +26°C° 0 mm 2 mps 742 mmHg 60%
13:00 +27°C° 0 mm 2 mps 741 mmHg 59%
14:00 +27°C° 0 mm 2 mps 741 mmHg 57%
15:00 +27°C° 0 mm 2 mps 740 mmHg 61%
16:00 +26°C° 0 mm 2 mps 740 mmHg 64%
17:00 +26°C° 0 mm 2 mps 740 mmHg 67%
18:00 +25°C° 0 mm 1 mps 739 mmHg 71%
19:00 +23°C° 0 mm 1 mps 739 mmHg 74%
20:00 +21°C° 0 mm 1 mps 739 mmHg 78%
21:00 +21°C° 0.1 mm 1 mps 738 mmHg 81%
22:00 +19°C° 0.1 mm 2 mps 738 mmHg 83%
23:00 +18°C° 0.1 mm 2 mps 738 mmHg 86%

13 July, Monday

Time Temperature Precipitation Wind Pressure Humidity
00:00 +18°C° 0.5 mm 2 mps 737 mmHg 88%
01:00 +18°C° 0.5 mm 2 mps 737 mmHg 91%
02:00 +18°C° 0.5 mm 2 mps 736 mmHg 93%
03:00 +18°C° 0.8 mm 2 mps 736 mmHg 94%
04:00 +18°C° 0.8 mm 2 mps 735 mmHg 95%
05:00 +19°C° 0.8 mm 2 mps 735 mmHg 96%
06:00 +20°C° 1 mm 2 mps 735 mmHg 95%
07:00 +21°C° 1 mm 2 mps 735 mmHg 93%
08:00 +22°C° 1 mm 3 mps 734 mmHg 92%
09:00 +24°C° 2 mm 3 mps 734 mmHg 89%
10:00 +24°C° 2 mm 3 mps 734 mmHg 85%
11:00 +25°C° 2 mm 3 mps 733 mmHg 82%
12:00 +25°C° 1.6 mm 2 mps 733 mmHg 82%
13:00 +25°C° 1.6 mm 2 mps 733 mmHg 83%
14:00 +25°C° 1.6 mm 2 mps 732 mmHg 83%
15:00 +25°C° 0.3 mm 2 mps 732 mmHg 84%
16:00 +24°C° 0.3 mm 3 mps 731 mmHg 85%
17:00 +24°C° 0.3 mm 3 mps 731 mmHg 86%
18:00 +22°C° 0.5 mm 3 mps 731 mmHg 88%
19:00 +21°C° 0.5 mm 3 mps 731 mmHg 91%
20:00 +20°C° 0.5 mm 3 mps 731 mmHg 94%
21:00 +19°C° 0.4 mm 3 mps 731 mmHg 95%
22:00 +19°C° 0.4 mm 3 mps 731 mmHg 96%
23:00 +18°C° 0.4 mm 3 mps 730 mmHg 98%

14 July, Tuesday

Time Temperature Precipitation Wind Pressure Humidity
00:00 +18°C° 0.1 mm 4 mps 730 mmHg 97%
01:00 +18°C° 0.1 mm 4 mps 730 mmHg 97%
02:00 +17°C° 0.1 mm 5 mps 731 mmHg 96%
03:00 +16°C° 0 mm 5 mps 731 mmHg 96%
04:00 +16°C° 0 mm 5 mps 731 mmHg 96%
05:00 +15°C° 0 mm 5 mps 731 mmHg 95%
06:00 +15°C° 0 mm 5 mps 731 mmHg 95%
07:00 +15°C° 0 mm 5 mps 731 mmHg 94%
08:00 +15°C° 0 mm 6 mps 731 mmHg 93%
09:00 +15°C° 0 mm 6 mps 732 mmHg 90%
10:00 +15°C° 0 mm 6 mps 732 mmHg 87%
11:00 +16°C° 0 mm 6 mps 732 mmHg 84%
12:00 +16°C° 0.1 mm 6 mps 732 mmHg 83%
13:00 +16°C° 0.1 mm 7 mps 733 mmHg 82%
14:00 +16°C° 0.1 mm 7 mps 733 mmHg 81%
15:00 +16°C° 0.2 mm 7 mps 733 mmHg 82%
16:00 +15°C° 0.2 mm 7 mps 733 mmHg 84%
17:00 +15°C° 0.2 mm 7 mps 733 mmHg 85%
18:00 +14°C° 0 mm 7 mps 733 mmHg 85%
19:00 +14°C° 0 mm 6 mps 733 mmHg 86%
20:00 +13°C° 0 mm 6 mps 733 mmHg 86%
21:00 +13°C° 0 mm 6 mps 733 mmHg 86%
22:00 +13°C° 0 mm 6 mps 733 mmHg 86%
23:00 +13°C° 0 mm 6 mps 733 mmHg 86%
Show more